Location: Battersea Observatory
(44.4318°N, 76.3841°W)
Time: 03:57:29
(UTC-05:00)

Vanguard 3 - Visible Passes

Search period start: 28 January 2022 00:00
Search period end: 07 February 2022 00:00
Orbit: 508 x 3260 km, 33.3° (Epoch: 27 January)

Date Brightness Start Highest point End Pass type
(mag) Time Alt. Az. Time Alt. Az. Time Alt. Az.
31 Jan 12.0 06:50:55 10° S 06:59:36 15° SE 07:07:08 10° ESE visible
02 Feb 11.8 06:30:17 10° S 06:41:36 19° SE 06:51:18 10° ESE visible
03 Feb 12.0 05:21:43 10° SSE 05:25:49 11° SE 05:29:47 10° ESE visible
04 Feb 11.7 06:10:18 10° S 06:23:26 22° SE 06:34:51 10° E visible
05 Feb 11.8 04:59:28 10° SSE 05:07:36 14° SE 05:15:25 10° ESE visible
06 Feb 11.6 05:50:48 10° S 06:05:09 26° SE 06:18:00 10° E visible
